Language selection

My Weather Profile Weather Topics  | 

Whitefish Bay: Past 24 Hour Conditions

 

Sault Ste. Marie Airport

10:00 PM EST 29 November 2022
Disclaimer

This table is a summary of hourly weather conditions for the past 24 hours.
Please note that these observations might not always be representative of weather conditions over their associated marine area.

Date / Time
(EST)
Wind(knots) Conditions Visibility(km) Pressure(kPa) Air tempC) Relative humidity(%) Dew pointC)
29 November 2022
22:00 ESE 13 gust 23 Light Rainshower 8 99.7 7 98 7
21:00 ESE 12 gust 26 Light Rainshower 4 99.8 6 99 6
20:00 ESE 13 gust 29 Rainshower 3 100.0 6 99 6
19:00 SE 12 gust 28 Mostly Cloudy 16 100.2 6 88 4
18:00 ESE 16 gust 30 Light Rainshower 16 100.3 6 88 4
17:00 ESE 13 gust 23 Mostly Cloudy 19 100.5 6 81 3
16:00 ESE 10 gust 23 Mostly Cloudy 19 100.6 6 79 2
15:00 ESE 11 gust 18 Mostly Cloudy 24 100.8 5 78 2
14:00 SE 9 gust 22 Mostly Cloudy 19 101.0 6 71 1
13:00 SE 9 gust 15 Mostly Cloudy 19 101.1 6 70 1
12:00 SE 10 gust 16 Mostly Cloudy 24 101.2 6 72 1
11:00 SE 9 gust 16 Mostly Cloudy 24 101.3 5 76 1
10:00 SE 9 Mostly Cloudy 24 101.3 4 80 1
9:00 ESE 5 Mostly Cloudy 24 101.4 3 82 0
8:00 SE 7 Mostly Cloudy 19 101.4 2 82 0
7:00 ESE 5 Mostly Cloudy 32 101.4 2 79 -1
6:00 ESE 5 Mostly Cloudy 24 101.4 3 77 -1
5:00 ESE 4 Mostly Cloudy 24 101.4 2 75 -2
4:00 ESE 5 Mostly Cloudy 24 101.4 2 74 -2
3:00 ESE 5 Light Snowshower 19 101.4 2 75 -2
2:00 SE 5 Light Snow 16 101.5 2 73 -2
1:00 ESE 5 Cloudy 32 101.5 2 75 -2
0:00 ESE 5 Cloudy 32 101.5 1 78 -2
28 November 2022
23:00 ESE 6 Mostly Cloudy 32 101.5 1 80 -2
22:00 ESE 6 Cloudy 32 101.5 1 79 -2

Zoom-in to make a selection

Map of Great Lakes - Lake Superior marine weather areas Mid Superior - 45001 East Superior - 45004 West Superior - 45006 Slate Island - 45136 Lake Of the Woods - 45148 Kenora Airport Royal Island Armstrong Airport Caribou Island Marathon Airport Pukaskwa National Park Thunder Bay Airport Welcome Island Little Flatland Island Sault Ste. Marie Airport Wawa Airport
Legend:
buoy Buoy
land station Land Station

Great Lakes - Lake Superior Area

Another Region

What we are doing

Date modified: